Whitefield, NH

10:48 PM EDT on June 27, 2017 (GMT -0400)
Mount Washington Regional

Weather History for KHIE - April, 2013

Change the Weather History Date:

Thursday, April 25, 2013

  Actual Average Record
Temperature  
Mean Temperature 46 °F -  
Max Temperature 63 °F 55 °F 69 °F (2008)
Min Temperature 28 °F 26 °F 19 °F (1999)
Degree Days  
Heating Degree Days 18    
Moisture  
Dew Point 30 °F    
Average Humidity 52    
Maximum Humidity 82    
Minimum Humidity 29    
Precipitation  
Precipitation 0.00 in - - ()
Sea Level Pressure  
Sea Level Pressure 30.05 in    
Wind  
Wind Speed 9 mph (West)    
Max Wind Speed 14 mph    
Max Gust Speed 28 mph    
Visibility 10 miles    
Events Rain    
Averages and records for this station are not official NWS values.
T = Trace of Precipitation, MM = Missing Value Source: NWS Daily Summary

Daily Weather History Graph

Daily Weather History Graph

Search for Another Location

Airport or City:

Trip Planner

Search our weather history database for the weather conditions in past years. The results will help you decide how hot, cold, wet, or windy it might be!

Date:

Astronomy

Apr. 25, 2013 Rise Set
Actual Time 5:45 AM EDT 7:43 PM EDT
Civil Twilight 5:14 AM EDT 8:14 PM EDT
Nautical Twilight 4:36 AM EDT 8:53 PM EDT
Astronomical Twilight 3:54 AM EDT 9:35 PM EDT
Moon 7:54 PM EDT (4/25) 5:26 AM EDT (4/25)
Length of Visible Light 15h 00m
Length of Day
13h 57m
Full, 100% of the Moon is Illuminated
Apr 25
Full
Apr 25
Full
May 2
Last Quarter
May 9
New
May 18
First Quarter

Hourly Weather History & Observations

Time (EDT) Temp. Windchill Dew Point Humidity Pressure Visibility Wind Dir Wind Speed Gust Speed Precip Events Conditions
12:52 AM 63.0 °F - 44.1 °F 50% 29.67 in 10.0 mi South 6.9 mph - 0.00 in   Mostly Cloudy
1:52 AM 63.0 °F - 45.0 °F 52% 29.67 in 10.0 mi Variable 6.9 mph - N/A   Overcast
2:52 AM 61.0 °F - 46.0 °F 58% 29.69 in 10.0 mi SW 10.4 mph 17.3 mph 0.00 in Rain Light Rain
3:52 AM 60.1 °F - 43.0 °F 53% 29.73 in 10.0 mi WSW 12.7 mph 23.0 mph 0.00 in   Overcast
4:52 AM 50.0 °F - 35.1 °F 57% 29.83 in 10.0 mi West 12.7 mph 27.6 mph N/A   Scattered Clouds
5:52 AM 48.0 °F - 32.0 °F 54% 29.91 in 10.0 mi West 12.7 mph 20.7 mph N/A   Overcast
6:52 AM 46.0 °F 41.0 °F 30.0 °F 54% 29.96 in 10.0 mi West 10.4 mph - N/A   Mostly Cloudy
7:52 AM 46.0 °F 39.9 °F 28.9 °F 51% 30.00 in 10.0 mi West 13.8 mph - N/A   Scattered Clouds
8:52 AM 46.0 °F 39.9 °F 28.0 °F 50% 30.03 in 10.0 mi West 13.8 mph 25.3 mph N/A   Scattered Clouds
9:52 AM 45.0 °F 38.5 °F 28.0 °F 52% 30.06 in 10.0 mi WNW 13.8 mph 19.6 mph N/A   Overcast
10:52 AM 46.0 °F 40.2 °F 28.0 °F 50% 30.10 in 10.0 mi WNW 12.7 mph - N/A   Scattered Clouds
11:52 AM 46.9 °F - 28.0 °F 48% 30.11 in 10.0 mi West 11.5 mph 18.4 mph N/A   Mostly Cloudy
12:52 PM 48.9 °F - 28.0 °F 44% 30.13 in 10.0 mi WNW 11.5 mph - N/A   Mostly Cloudy
1:52 PM 52.0 °F - 27.0 °F 38% 30.13 in 10.0 mi Variable 6.9 mph 17.3 mph N/A   Mostly Cloudy
2:52 PM 52.0 °F - 26.1 °F 37% 30.13 in 10.0 mi NW 9.2 mph 16.1 mph N/A   Partly Cloudy
3:52 PM 52.0 °F - 23.0 °F 32% 30.14 in 10.0 mi Variable 5.8 mph 19.6 mph N/A   Clear
4:52 PM 53.1 °F - 21.9 °F 30% 30.15 in 10.0 mi North 8.1 mph - N/A   Clear
5:52 PM 53.1 °F - 21.9 °F 30% 30.18 in 10.0 mi West 6.9 mph - N/A   Clear
6:52 PM 51.1 °F - 19.9 °F 29% 30.20 in 10.0 mi WNW 5.8 mph - N/A   Clear
7:52 PM 42.1 °F - 28.0 °F 58% 30.23 in 10.0 mi Calm Calm - N/A   Clear
8:52 PM 35.1 °F - 28.0 °F 76% 30.27 in 10.0 mi Calm Calm - N/A   Clear
9:52 PM 32.0 °F - 24.1 °F 73% 30.30 in 10.0 mi Calm Calm - N/A   Clear
10:52 PM 30.9 °F - 25.0 °F 79% 30.32 in 10.0 mi Calm Calm - N/A   Clear
11:52 PM 28.9 °F - 24.1 °F 82% 30.34 in 10.0 mi Calm Calm - N/A   Clear